Weather in Aktash

Uzbekistan     39˚55′17″N   65˚55′31″E
temp.,
°C
wind,
m/s
gust,
m/s
humid.,
%
clouds,
%
prec.,
mm/h
press.,
hPa
HPBL,
m
3 december, thu
thu323:00+5˚wnw345824 0.0 102744
02:00+3˚w33630 0.0 102735
05:00+2˚w336613 0.0 102835
08:00+1˚wnw12730 0.0 102922
11:00+7˚nw114947 0.0 1028251
14:00+10˚wnw3338100 0.0 1027651
17:00+7˚wnw3343100 0.0 102875
20:00+5˚w2347100 0.0 102829
4 december, fri
fri423:00+4˚nw2254100 0.0 102822
02:00+2˚wnw225387 0.0 102822
05:00nw125272 0.0 102922
08:00−1˚wnw125757 0.0 103021
11:00+5˚wnw223229 0.0 1030358
14:00+9˚w55160 0.0 1029876
17:00+5˚w58200 0.0 1029240
20:00wsw57300 0.0 1031133
5 december, sat
sat523:00−2˚w34340 0.0 103171
02:00−3˚wnw23370 0.0 103127
05:00−5˚wnw12420 0.0 103121
08:00−7˚nw11450 0.0 103121
11:00+1˚nne00228 0.0 1030288
14:00+5˚nw221456 0.0 1028497
17:00+2˚wnw231864 0.0 102822
20:00−2˚w122690 0.0 102922
6 december, sun
sun623:00−3˚e122862 0.0 102922
02:00−3˚se23500 0.0 102921
05:00−3˚ese23580 0.0 102921
08:00−3˚ese23610 0.0 102921
11:00+5˚ese23340 0.0 1028338
14:00+9˚ene11270 0.0 1026727
17:00+5˚ne113837 0.0 102522
20:00+3˚ne1146100 0.0 102622
7 december, mon
mon723:00+4˚se2354100 0.0 102530
02:00+4˚ese2258100 0.0 102535
05:00+3˚ese1160100 0.0 102524
08:00+3˚e1165100 0.0 102835
11:00+5˚wnw2344100 0.0 1029634
14:00+8˚w432160 0.0 1028989
17:00+5˚w352255 0.0 1029102
20:00+1˚wsw352894 0.0 1031114